BEIDOU-3 IGSO-1 (44204 NORAD) Tracking and Keplerian Element Data

This shows tracking and keplerian element data for the satellite.

Feedback or suggestion? Click here.




ElementValue
Catalog44204
NameBEIDOU-3 IGSO-1
Epoch Orbit103
Epoch Day199.45165377
Epoch Year2019
RAAN64.6306
Inclination55.0189
Eccentricity0.0016577
Argument of Perigee178.0008
Mean Anonmoly330.6117
Mean Motion1.00278717
Decay Rate-2.12E-06
L11 44204U 19023A 19199.45165377 -.00000212 00000-0 10000-3 0 9996
L22 44204 55.0189 64.6306 0016577 178.0008 330.6117 1.00278717 1037

Live tracking and technical data element details for BEIDOU-3 IGSO-1 (NORAD 44204). BEIDOU-3 IGSO-1 can be tracked NOW for your location showing map with azimuth and elevation plus other details from your city location.

Track the satellite on the map from your city or location and see movement details for azimuth, elevation, latitude, longitude, range, height, and movement on the map or in text.







IsCatalogInMostPopularTable: catalog: 44204, numindb: 36
Update: records affected: 1



GetName: 44204 BEIDOU-3 IGSO-1

Hit Count: updated at: Mon, 22 Jul 2019 03:51:07 GMT